Hayward, WI

4:20 AM CDT on August 18, 2017 (GMT -0500)
Sawyer County

Weather History for KHYR - January, 2012

Change the Weather History Date:

Tuesday, January 10, 2012

  Actual Average Record
Temperature  
Mean Temperature 32 °F -  
Max Temperature 50 °F 35 °F 50 °F (2012)
Min Temperature 15 °F 11 °F -23 °F (1999)
Degree Days  
Heating Degree Days 32    
Moisture  
Dew Point 22 °F    
Average Humidity 75    
Maximum Humidity 89    
Minimum Humidity 46    
Precipitation  
Precipitation 0.00 in - - ()
Sea Level Pressure  
Sea Level Pressure 29.82 in    
Wind  
Wind Speed 2 mph (SSW)    
Max Wind Speed 9 mph    
Max Gust Speed -    
Visibility 10 miles    
Events      
Averages and records for this station are not official NWS values.
T = Trace of Precipitation, MM = Missing Value Source: NWS Daily Summary

Daily Weather History Graph

Daily Weather History Graph

Search for Another Location

Airport or City:

Trip Planner

Search our weather history database for the weather conditions in past years. The results will help you decide how hot, cold, wet, or windy it might be!

Date:

Astronomy

Jan. 10, 2012 Rise Set
Actual Time 7:46 AM CST 4:40 PM CST
Civil Twilight 7:12 AM CST 5:14 PM CST
Nautical Twilight 6:35 AM CST 5:51 PM CST
Astronomical Twilight 5:59 AM CST 6:27 PM CST
Moon 6:40 PM CST (1/10) 8:18 AM CST (1/10)
Length of Visible Light 10h 01m
Length of Day
8h 53m
Full, 98% of the Moon is Illuminated
Jan 10
Full
Jan 16
Last Quarter
Jan 23
New
Jan 30
First Quarter
Feb 7
Full

Hourly Weather History & Observations

Time (CST) Temp. Windchill Dew Point Humidity Pressure Visibility Wind Dir Wind Speed Gust Speed Precip Events Conditions
12:53 AM 19.0 °F - 15.1 °F 85% 29.98 in 10.0 mi Calm Calm - N/A   Clear
1:53 AM 17.1 °F - 14.0 °F 88% 29.98 in 10.0 mi Calm Calm - N/A   Clear
2:53 AM 17.1 °F - 12.9 °F 84% 30.00 in 10.0 mi Calm Calm - N/A   Clear
3:53 AM 15.1 °F - 10.9 °F 84% 29.97 in 10.0 mi Calm Calm - N/A   Clear
4:53 AM 16.0 °F - 12.0 °F 84% 29.93 in 10.0 mi Calm Calm - N/A   Clear
5:53 AM 15.1 °F - 10.9 °F 84% 29.91 in 10.0 mi Calm Calm - N/A   Clear
6:53 AM 15.1 °F - 10.9 °F 84% 29.89 in 10.0 mi Calm Calm - N/A   Clear
7:53 AM 27.0 °F 21.6 °F 24.1 °F 89% 29.88 in 10.0 mi SSW 4.6 mph - N/A   Clear
8:53 AM 30.0 °F 26.5 °F 26.1 °F 85% 29.88 in 10.0 mi South 3.5 mph - N/A   Clear
9:53 AM 36.0 °F 31.1 °F 28.0 °F 73% 29.87 in 10.0 mi South 5.8 mph - N/A   Clear
10:53 AM 42.1 °F 36.6 °F 28.9 °F 60% 29.83 in 10.0 mi South 9.2 mph - N/A   Clear
11:53 AM 45.0 °F 40.6 °F 28.9 °F 53% 29.80 in 10.0 mi SW 8.1 mph - N/A   Clear
12:53 PM 46.0 °F 41.9 °F 28.9 °F 51% 29.75 in 10.0 mi SW 8.1 mph - N/A   Clear
1:53 PM 48.9 °F - 30.0 °F 48% 29.73 in 10.0 mi SSW 8.1 mph - N/A   Clear
2:53 PM 50.0 °F - 30.0 °F 46% 29.72 in 10.0 mi South 4.6 mph - N/A   Clear
3:53 PM 48.0 °F - 30.0 °F 50% 29.72 in 10.0 mi SW 3.5 mph - N/A   Clear
4:53 PM 37.9 °F - 28.9 °F 70% 29.73 in 10.0 mi Calm Calm - N/A   Clear
5:53 PM 32.0 °F - 26.1 °F 79% 29.75 in 10.0 mi Calm Calm - N/A   Clear
6:53 PM 28.9 °F - 25.0 °F 85% 29.75 in 10.0 mi Calm Calm - N/A   Clear
7:53 PM 28.0 °F - 23.0 °F 81% 29.72 in 10.0 mi Calm Calm - N/A   Clear
8:53 PM 25.0 °F - 21.9 °F 88% 29.72 in 10.0 mi Calm Calm - N/A   Clear
10:53 PM 23.0 °F 18.4 °F 19.9 °F 88% 29.68 in 10.0 mi NE 3.5 mph - N/A   Clear
11:53 PM 25.0 °F 20.7 °F 21.9 °F 88% 29.67 in 10.0 mi NE 3.5 mph - N/A   Clear